SWARM B

Last updated on Sun Apr 12 2026 00:03:41 GMT+0000 (Coordinated Universal Time)

1 39451U 13067A 26101.47959378 .00003056 00000+0 11010-3 0 9990 2 39451 87.7496 2.5619 0002622 79.6159 280.5385 15.28166955673057
UTC large
Height (km)
Speed (km/s)
/
Latitude / Longitude
Inclination (degrees)
Orbital Period (minutes)
Azimuth
Elevation
Range (km)
Doppler Factor

Next 0 passes for location: London (51.5072 / 0.1276)

Sorry there are no passes over London.
SWARM B